Tracking 30074 objects as of 13-Jan-2025
HD Live streaming from Space Station
objects crossing your sky now

STARLINK-30457

Track STARLINK-30457 now!
10-day predictions
STARLINK-30457 is classified as:


NORAD ID: 57900
Int'l Code: 2023-146K
Perigee: 565.3 km
Apogee: 567.2 km
Inclination: 43.0 °
Period: 95.8 minutes
Semi major axis: 6937 km
RCS: Unknown
Launch date: September 20, 2023
Source: United States (US)
Launch site: AIR FORCE EASTERN TEST RANGE (AFETR)
Your satellite tracking list
Your tracking list is empty




NASA's NSSDC Master Catalog

Two Line Element Set (TLE):
1 57900U 23146K   25013.18115046  .00001894  00000-0  15523-3 0  9995
2 57900  43.0039  78.0359 0001343 275.8978  84.1712 15.02532089 72750
Source of the keplerian elements: AFSPC